Total_Precipitation_Accumulation
0.00 0.00 0.00 0.00 0.00 0.00 0.00 0.00 0.00 0.00 0.00 0.00 0.00 0.00 0.00 0.00 0.00 0.00 0.00 0.00 0.00 0.00 0.00 0.00 0.03 0.05 0.07 0.14 0.61 1.50 2.52 1.20 0.99 0.26 0.17 0.34 0.28 0.41 0.65 0.76 0.70 0.71 0.90 0.76 0.92 0.89 2.16 2.94 2.02 2.37 2.17 1.78 1.86 1.39 1.59 2.64 1.58 1.27 1.68 1.16 1.76 2.40 1.69 1.77 1.93 1.39 0.84 0.75 0.76 0.45 0.74 0.88 0.72 0.64 0.89 0.86 1.06 1.05 1.30 0.94 0.92 0.72 0.47 0.58 1.37 1.15
0.00 0.00 0.00 0.00 0.00 0.00 0.00 0.00 0.00 0.00 0.00 0.00 0.00 0.00 0.00 0.00 0.00 0.00 0.00 0.00 0.00 0.00 0.01 0.01 0.01 0.06 0.05 0.12 0.52 0.45 2.46 1.51 1.32 0.79 0.39 0.64 1.18 0.69 0.46 0.50 0.40 0.68 0.99 0.93 0.85 1.69 2.18 1.64 1.53 2.47 2.09 2.01 1.43 1.90 1.90 2.06 1.47 1.67 1.51 1.54 2.67 1.97 1.11 1.41 1.58 1.28 0.49 0.78 0.60 0.65 0.71 1.08 1.11 1.11 1.21 0.76 0.89 1.04 1.44 1.14 1.22 0.98 1.14 1.09 0.55 0.91
0.00 0.00 0.00 0.00 0.00 0.00 0.00 0.00 0.00 0.00 0.00 0.00 0.00 0.00 0.00 0.00 0.00 0.00 0.00 0.00 0.00 0.00 0.02 0.02 0.03 0.08 0.11 0.13 0.85 0.43 0.41 1.75 1.42 0.44 0.73 1.35 0.95 1.88 1.77 1.51 1.36 1.05 1.17 1.34 1.47 1.00 1.97 2.95 2.16 2.15 1.74 1.26 1.58 2.47 1.94 3.13 1.40 1.45 1.45 1.73 2.26 1.88 1.60 0.97 1.51 1.22 1.24 1.17 1.43 1.57 1.47 1.10 1.48 1.27 1.31 1.20 1.65 1.74 1.11 1.12 1.08 0.73 0.54 0.51 0.79 0.59
0.00 0.00 0.00 0.00 0.00 0.00 0.00 0.00 0.00 0.00 0.00 0.00 0.00 0.00 0.00 0.00 0.01 0.03 0.00 0.00 0.00 0.00 0.01 0.01 0.03 0.14 0.16 0.30 0.29 0.34 0.37 0.39 1.20 0.73 0.72 1.07 1.04 0.65 1.27 1.08 0.84 1.02 0.89 0.85 0.71 1.08 0.82 1.43 1.47 1.22 1.54 2.03 2.23 1.75 2.36 1.57 1.91 1.91 1.97 1.54 1.63 2.13 1.23 0.79 1.08 0.95 0.99 1.45 2.71 1.35 1.61 1.64 1.21 0.83 0.94 1.58 1.45 1.21 1.57 0.90 0.74 0.59 0.52 0.62 0.56 0.47
0.00 0.00 0.00 0.00 0.00 0.00 0.00 0.00 0.00 0.00 0.00 0.00 0.00 0.00 0.00 0.01 0.00 0.00 0.04 0.00 0.00 0.00 0.00 0.02 0.06 0.22 0.24 0.36 0.42 0.42 0.41 0.31 0.89 0.75 0.61 0.43 0.79 0.81 1.13 0.87 0.81 0.65 0.79 0.66 0.69 0.53 0.82 1.89 1.25 1.12 1.75 1.82 1.69 2.17 2.10 2.22 2.17 2.49 1.63 1.64 1.58 1.29 1.27 0.69 0.43 0.83 0.91 1.15 1.17 1.01 0.97 1.32 1.86 1.37 1.60 1.31 2.26 1.10 0.73 0.99 0.95 0.33 0.38 0.57 0.56 0.67
0.00 0.00 0.00 0.00 0.00 0.00 0.00 0.00 0.00 0.00 0.00 0.00 0.00 0.00 0.00 0.00 0.01 0.00 0.00 0.00 0.01 0.02 0.02 0.02 0.06 0.33 0.35 0.53 0.22 0.31 0.36 0.41 0.50 0.54 0.89 1.02 0.61 0.69 0.76 0.83 0.76 0.74 0.43 0.49 0.50 0.32 0.66 0.84 0.89 1.57 2.37 2.02 1.99 1.95 2.92 2.65 3.07 2.60 2.51 1.94 1.30 1.01 0.60 0.51 0.53 0.80 1.60 1.19 0.93 0.86 0.74 0.98 1.29 1.06 0.92 0.50 0.79 0.66 0.91 0.30 0.22 0.37 0.35 0.55 0.44 0.34
0.01 0.00 0.00 0.00 0.00 0.00 0.00 0.00 0.00 0.00 0.00 0.00 0.01 0.00 0.00 0.00 0.00 0.00 0.01 0.00 0.01 0.02 0.07 0.00 0.04 0.21 0.21 0.35 0.36 0.38 0.20 0.28 0.55 0.46 0.48 1.23 0.62 0.32 0.41 0.52 0.96 0.77 0.61 0.60 1.09 0.81 0.97 1.43 1.35 2.01 2.06 1.72 1.87 1.44 2.83 2.71 3.33 2.67 1.61 1.22 0.74 0.36 0.68 1.00 0.65 0.62 1.27 1.11 0.98 0.59 1.09 1.23 1.10 0.66 0.73 0.85 0.82 0.68 0.68 0.43 0.22 0.23 0.56 0.60 0.51 0.45
0.00 0.00 0.00 0.00 0.00 0.00 0.00 0.00 0.00 0.00 0.00 0.01 0.01 0.00 0.00 0.00 0.00 0.00 0.01 0.00 0.03 0.00 0.01 0.00 0.03 0.24 0.29 0.18 0.17 0.38 0.40 0.37 0.55 0.41 0.33 0.16 0.93 0.53 0.56 1.03 0.77 0.53 0.31 0.29 0.33 0.39 0.82 1.21 1.19 1.91 1.20 2.29 1.81 2.44 3.22 2.99 3.08 2.37 1.59 0.99 0.57 0.94 1.80 0.67 0.47 0.66 0.77 0.96 1.12 1.33 1.33 0.87 0.59 0.69 0.68 0.91 0.60 0.40 0.98 0.33 0.39 0.38 0.39 0.34 0.31 0.35
0.00 0.00 0.00 0.00 0.00 0.00 0.00 0.00 0.00 0.00 0.00 0.00 0.00 0.00 0.00 0.00 0.00 0.00 0.01 0.01 0.02 0.04 0.07 0.01 0.03 0.14 0.20 0.26 0.27 0.34 0.66 0.48 0.64 0.38 0.25 0.24 0.29 0.58 1.18 1.12 0.75 0.61 0.71 0.61 0.31 0.77 2.47 1.30 0.76 1.40 2.75 2.21 2.70 2.84 3.00 3.11 2.38 2.45 1.69 1.32 1.66 1.95 0.80 0.66 0.72 0.96 1.21 0.78 0.90 1.77 1.81 1.30 0.72 0.59 0.58 0.56 0.62 0.58 0.39 0.41 0.32 0.68 0.73 0.65 0.48 0.47
0.00 0.00 0.00 0.00 0.00 0.00 0.00 0.00 0.00 0.00 0.00 0.00 0.00 0.00 0.00 0.00 0.00 0.00 0.02 0.00 0.09 0.02 0.07 0.04 0.08 0.05 0.33 0.19 0.40 0.43 0.26 0.30 0.26 0.21 0.27 0.28 0.27 0.39 0.72 0.96 0.59 0.43 0.40 0.60 0.71 0.72 0.78 0.72 1.19 1.51 1.83 2.96 2.50 3.39 2.91 1.85 2.61 2.47 2.03 1.98 0.83 0.74 1.05 1.31 1.33 1.82 1.84 1.27 1.53 1.76 1.58 0.86 0.75 0.38 0.60 0.56 0.38 0.31 0.26 0.28 0.51 0.72 0.81 0.30 0.40 0.68
0.01 0.00 0.00 0.00 0.00 0.00 0.00 0.00 0.00 0.00 0.00 0.00 0.00 0.00 0.00 0.00 0.01 0.01 0.01 0.02 0.11 0.05 0.02 0.01 0.05 0.00 0.27 0.26 0.20 0.30 0.23 0.13 0.14 0.19 0.28 0.29 0.31 0.33 0.63 0.55 0.47 0.66 0.30 0.39 0.34 0.49 0.58 1.04 1.13 1.10 0.94 1.50 1.76 2.26 1.39 1.74 2.06 1.31 1.53 1.23 1.10 0.82 1.03 1.67 2.10 1.62 1.13 1.53 1.81 1.99 0.98 0.98 0.37 0.28 0.20 0.38 0.21 0.13 0.14 0.26 0.32 0.80 0.30 0.50 0.52 0.55
0.00 0.00 0.00 0.00 0.00 0.00 0.00 0.00 0.00 0.00 0.00 0.00 0.00 0.01 0.00 0.03 0.03 0.03 0.03 0.02 0.09 0.00 0.02 0.03 0.03 0.05 0.17 0.49 0.44 0.15 0.19 0.11 0.11 0.12 0.20 0.24 0.17 0.21 0.32 0.41 0.45 0.51 0.31 0.35 0.38 0.40 0.52 0.99 0.72 0.47 0.66 1.31 2.23 1.91 1.36 1.43 2.03 1.69 1.35 1.39 2.21 1.81 1.24 1.42 1.47 1.16 2.07 1.85 1.70 1.37 0.81 0.67 0.52 0.17 0.15 0.08 0.09 0.09 0.11 0.19 0.19 0.52 1.05 1.22 0.69 0.59
0.00 0.00 0.00 0.00 0.00 0.00 0.00 0.00 0.00 0.00 0.00 0.00 0.00 0.01 0.17 0.18 0.01 0.15 0.04 0.07 0.00 0.01 0.04 0.02 0.02 0.10 0.05 0.17 0.37 0.10 0.10 0.06 0.06 0.09 0.16 0.15 0.13 0.13 0.23 0.17 0.24 0.19 0.33 0.30 0.48 0.42 0.63 0.54 0.52 0.28 0.58 1.26 2.36 1.10 1.36 2.52 2.60 1.54 2.14 2.03 1.70 1.08 0.96 0.97 2.13 2.27 2.26 1.60 1.59 1.25 0.69 0.42 0.29 0.28 0.12 0.12 0.11 0.12 0.14 0.17 0.24 0.40 0.60 0.97 0.74 0.25
0.02 0.00 0.00 0.00 0.00 0.00 0.00 0.00 0.01 0.01 0.00 0.00 0.01 0.09 0.05 0.12 0.05 0.02 0.07 0.02 0.07 0.02 0.03 0.03 0.07 0.10 0.44 0.41 0.27 0.18 0.14 0.11 0.07 0.11 0.09 0.11 0.16 0.17 0.20 0.16 0.23 0.20 0.23 0.41 0.52 0.45 0.84 0.68 0.63 0.44 0.60 0.95 1.35 1.30 1.67 2.51 2.56 2.19 2.05 1.68 1.24 1.01 1.00 1.84 2.56 2.44 2.33 2.15 2.33 1.15 0.86 0.49 0.29 0.29 0.23 0.48 0.14 0.17 0.22 0.45 0.57 0.36 1.00 0.91 0.46 0.54
0.02 0.14 0.00 0.00 0.01 0.00 0.00 0.00 0.00 0.04 0.00 0.00 0.00 0.01 0.07 0.10 0.05 0.02 0.05 0.09 0.02 0.12 0.08 0.04 0.02 0.13 0.16 1.93 0.15 0.12 0.11 0.02 0.04 0.11 0.07 0.10 0.17 0.14 0.21 0.11 0.19 0.49 0.30 0.22 0.56 0.36 0.81 1.39 1.03 1.06 0.92 1.20 1.48 1.27 2.27 2.41 1.60 2.37 1.51 1.95 1.42 2.01 1.42 1.84 2.58 2.18 3.06 1.79 0.99 0.70 0.81 0.73 0.41 0.46 0.54 0.40 0.25 0.35 0.43 0.47 0.59 0.69 0.71 0.54 0.54 0.76
0.01 0.08 0.01 0.00 0.00 0.00 0.00 0.00 0.00 0.01 0.02 0.00 0.01 0.01 0.04 0.04 0.01 0.07 0.22 0.05 0.14 0.08 0.03 0.10 0.09 0.34 0.81 1.57 0.47 0.16 0.06 0.06 0.06 0.08 0.07 0.17 0.15 0.13 0.22 0.30 0.27 0.44 0.59 0.62 0.76 1.30 1.14 1.10 0.94 0.85 1.23 1.65 1.58 2.26 1.66 1.59 1.26 2.01 1.66 2.28 2.59 2.29 3.22 2.93 1.98 2.50 2.88 0.86 0.46 0.57 0.53 0.40 0.34 0.28 0.33 0.32 0.26 0.19 0.24 0.29 0.76 0.43 0.71 1.16 0.68 0.99
0.00 0.10 0.01 0.01 0.00 0.00 0.00 0.00 0.00 0.00 0.23 0.07 0.00 0.05 0.01 0.01 0.02 0.01 0.00 0.01 0.00 0.00 0.07 0.02 0.14 0.52 0.41 1.34 0.43 0.49 0.18 0.12 0.08 0.11 0.10 0.10 0.10 0.21 0.30 0.26 0.38 0.52 1.06 1.50 1.68 1.43 0.97 0.90 1.30 1.05 0.94 0.65 0.41 0.78 1.06 1.43 1.60 2.70 2.22 1.23 1.41 2.35 4.93 3.43 4.04 3.75 0.80 0.96 0.27 0.28 0.42 0.32 0.44 0.25 0.18 0.22 0.18 0.22 0.47 0.51 0.48 0.53 0.94 1.55 1.18 0.89
0.11 0.22 0.01 0.01 0.00 0.00 0.00 0.00 0.00 0.00 0.00 0.00 0.03 0.04 0.00 0.00 0.03 0.03 0.09 0.08 0.01 0.01 0.10 0.03 0.08 0.48 0.22 0.76 0.90 0.51 0.24 0.28 0.20 0.15 0.08 0.17 0.23 0.32 0.51 0.80 0.92 1.04 1.46 1.24 1.55 1.83 1.42 1.13 0.80 0.54 0.57 0.51 0.54 0.57 1.60 1.59 2.23 1.55 1.22 1.33 3.07 3.98 5.55 4.62 3.48 2.11 1.65 0.75 0.65 0.84 0.75 0.72 0.70 0.44 0.48 0.41 0.21 0.29 0.38 0.50 0.90 0.56 0.79 1.27 1.11 0.97
0.00 0.13 0.05 0.00 0.00 0.01 0.00 0.00 0.00 0.00 0.00 0.00 0.06 0.02 0.01 0.08 0.05 0.03 0.00 0.03 0.03 0.04 0.10 0.11 0.25 0.16 0.16 0.81 0.66 0.58 0.24 0.45 0.53 0.40 0.33 0.26 0.41 0.80 0.60 0.81 1.15 1.62 1.69 1.90 1.83 1.60 1.12 0.73 0.77 0.72 0.54 0.83 0.80 1.22 1.07 0.91 1.01 0.81 0.72 1.73 2.34 2.76 2.51 2.89 3.07 2.29 1.72 1.19 1.23 1.00 1.35 0.78 0.48 0.41 0.36 0.40 0.24 0.47 0.58 0.47 1.00 1.13 1.32 1.16 0.90 0.93
0.00 0.05 0.07 0.00 0.00 0.02 0.00 0.00 0.01 0.01 0.00 0.00 0.00 0.00 0.00 0.00 0.13 0.08 0.01 0.20 0.01 0.17 0.03 0.21 0.16 0.26 0.54 0.60 0.19 0.22 0.20 0.26 0.24 0.28 0.41 0.73 0.65 0.94 1.07 1.12 1.20 1.17 1.13 1.19 1.07 1.89 1.67 1.01 0.77 0.72 0.69 1.02 0.80 1.08 0.81 0.75 0.85 1.08 0.85 1.35 2.56 3.04 3.00 3.27 2.44 1.98 1.95 1.62 1.01 0.88 0.57 0.55 0.43 0.19 0.57 0.69 0.64 0.16 0.63 0.63 0.92 0.85 0.90 1.01 0.67 0.67
0.05 0.01 0.14 0.08 0.00 0.00 0.04 0.00 0.02 0.00 0.04 0.00 0.00 0.00 0.00 0.01 0.04 0.00 0.10 0.03 0.07 0.08 0.16 0.16 0.19 0.60 0.60 0.11 0.22 0.23 0.17 0.33 0.30 0.26 0.29 0.54 0.87 0.55 0.86 1.18 1.25 1.15 1.07 1.01 1.29 1.72 1.78 1.00 0.57 0.69 0.80 0.71 0.61 0.84 0.60 0.96 0.69 0.59 0.37 0.97 1.83 2.24 1.62 1.78 2.74 1.73 1.47 1.16 0.94 0.39 0.36 0.27 0.28 0.18 0.14 0.68 0.95 1.07 1.56 1.26 0.80 0.68 0.63 0.67 0.61 0.55
0.01 0.00 0.04 0.12 0.04 0.02 0.01 0.00 0.00 0.00 0.02 0.01 0.00 0.03 0.01 0.05 0.11 0.09 0.05 0.00 0.08 0.06 0.12 0.12 0.22 0.42 0.63 0.18 0.26 0.49 0.63 0.37 0.54 0.37 0.42 0.77 0.27 0.53 0.62 0.89 0.56 0.72 0.88 1.33 1.53 1.20 1.56 1.77 2.20 1.68 1.05 1.40 1.87 1.96 1.52 0.81 0.35 0.32 0.37 0.81 0.85 0.53 0.72 0.52 0.59 0.83 0.96 0.92 0.90 0.23 0.42 0.56 0.41 0.57 0.27 0.48 1.12 1.70 0.85 0.30 0.37 0.38 0.44 0.43 0.44 0.36
0.04 0.05 0.10 0.06 0.17 0.37 0.09 0.05 0.01 0.01 0.01 0.01 0.00 0.02 0.01 0.02 0.01 0.12 0.08 0.19 0.05 0.11 0.04 0.21 0.15 0.53 0.54 0.41 0.42 0.20 0.42 0.36 0.53 0.57 0.69 0.77 0.75 0.98 1.23 1.38 0.88 0.60 0.46 0.51 0.55 0.85 1.87 2.58 2.16 1.91 1.27 1.37 0.79 0.78 0.86 0.71 0.62 0.65 0.75 1.14 1.31 0.71 0.33 0.18 0.16 0.37 0.45 0.48 0.38 0.35 0.50 0.51 0.44 0.32 0.19 0.57 0.56 0.52 0.47 0.53 0.60 0.52 0.49 0.41 0.39 0.34
0.00 0.01 0.03 0.06 0.06 0.08 0.01 0.00 0.01 0.00 0.00 0.00 0.00 0.00 0.01 0.07 0.05 0.05 0.12 0.24 0.14 0.16 0.11 0.13 0.06 0.81 0.38 0.95 0.60 0.49 0.88 0.62 0.41 0.57 0.76 0.54 0.68 0.79 0.95 0.63 0.96 0.41 0.63 0.78 0.52 0.91 0.94 0.94 0.82 1.25 1.31 1.41 1.19 0.95 0.78 0.48 0.64 0.89 1.13 0.91 0.89 1.05 0.64 0.37 0.34 0.73 0.81 0.53 0.47 0.72 0.98 0.66 0.53 0.50 0.17 0.55 0.69 0.98 0.43 0.32 0.53 0.57 0.55 0.41 0.46 0.26
0.15 0.03 0.07 0.17 0.17 0.25 0.22 0.09 0.04 0.02 0.01 0.01 0.06 0.03 0.01 0.07 0.04 0.09 0.04 0.07 0.03 0.06 0.19 0.11 0.25 0.74 0.92 0.36 0.68 0.42 0.20 0.31 1.59 1.26 1.31 0.68 0.33 0.88 0.88 1.14 1.15 0.71 0.70 0.33 0.22 0.33 0.38 0.60 0.67 1.10 0.88 0.87 0.66 1.30 1.60 1.46 1.45 1.30 1.18 0.56 0.60 0.90 0.54 0.30 0.44 0.33 0.34 1.31 1.54 1.01 0.67 0.67 0.80 0.63 0.60 0.85 1.30 0.78 0.80 0.49 0.50 0.74 0.73 0.47 0.66 0.56
0.12 0.35 0.07 0.14 0.37 0.44 0.39 0.47 0.53 0.23 0.12 0.04 0.01 0.03 0.03 0.02 0.13 0.14 0.05 0.05 0.04 0.02 0.04 0.13 0.19 0.43 0.42 0.30 0.39 0.38 0.39 0.44 0.47 0.50 0.51 0.75 0.99 0.33 0.50 0.57 0.42 0.77 0.56 0.53 0.43 0.31 0.33 0.55 0.66 1.27 1.12 0.81 0.96 0.71 0.53 1.17 1.03 0.74 1.19 0.61 0.46 0.44 0.64 0.89 0.75 1.59 2.06 2.80 2.28 1.51 2.43 1.54 1.01 1.33 1.35 1.57 1.11 0.89 0.90 0.77 0.69 0.92 0.91 0.53 0.77 0.47
0.33 0.14 0.34 0.20 0.28 0.60 0.51 0.31 0.15 0.01 0.11 0.12 0.17 0.03 0.12 0.01 0.04 0.04 0.11 0.15 0.10 0.21 0.15 0.26 0.19 0.47 0.52 0.39 0.27 0.22 0.41 0.36 0.80 0.38 0.48 0.54 0.41 0.78 0.64 0.93 0.60 0.73 0.62 0.38 0.33 0.46 0.43 0.41 0.59 0.87 1.16 1.10 1.14 1.19 0.93 0.82 0.86 0.90 1.19 1.08 0.60 0.83 0.81 1.06 1.31 2.64 2.63 2.58 2.23 2.51 1.44 1.56 2.34 1.72 2.32 1.90 1.63 1.79 1.15 0.99 1.13 1.25 1.10 0.89 0.74 0.69
0.23 0.21 0.19 0.23 0.17 0.26 0.15 0.16 0.22 0.04 0.16 0.14 0.20 0.24 0.14 0.09 0.10 0.18 0.03 0.11 0.23 0.09 0.27 0.64 0.29 0.21 0.33 0.26 0.21 0.24 0.23 0.20 0.37 0.26 0.16 0.21 0.46 0.40 0.56 0.64 0.63 0.31 0.46 0.34 0.23 0.21 0.23 0.37 0.37 0.41 0.71 1.22 1.93 1.89 1.42 1.29 1.67 0.88 0.82 1.23 1.06 1.11 0.85 1.02 1.28 2.91 1.39 1.49 2.01 1.63 2.04 1.87 1.95 1.97 1.87 1.67 1.84 2.03 2.04 1.68 1.43 1.25 1.11 1.07 0.75 0.77
0.37 0.35 0.40 0.23 0.41 0.22 0.36 0.28 0.10 0.09 0.08 0.10 0.13 0.14 0.23 0.19 0.16 0.19 0.12 0.09 0.26 0.05 0.43 0.42 0.27 0.16 0.20 0.18 0.18 0.19 0.14 0.20 0.25 0.28 0.23 0.25 0.17 0.10 0.13 0.20 0.35 0.25 0.24 0.35 0.19 0.25 0.35 0.15 0.23 0.41 0.80 0.75 1.08 0.81 0.72 0.66 0.77 1.23 1.12 0.90 0.62 0.85 0.94 0.73 0.97 1.36 1.84 1.65 1.54 1.45 1.80 1.89 1.94 1.61 1.48 1.88 2.28 2.33 2.25 1.95 1.53 1.19 1.05 0.72 0.70 0.98
0.10 0.31 0.46 0.29 0.35 0.34 0.24 0.16 0.19 0.12 0.10 0.17 0.10 0.11 0.19 0.12 0.12 0.12 0.10 0.06 0.13 0.20 0.15 0.27 0.05 0.11 0.20 0.24 0.13 0.16 0.14 0.20 0.28 0.23 0.22 0.12 0.10 0.28 0.11 0.12 0.11 0.27 0.17 0.14 0.24 0.25 0.19 0.17 0.30 0.44 0.40 0.30 0.33 0.63 0.58 0.48 0.58 0.97 1.02 1.16 0.62 0.75 0.95 0.92 1.00 1.37 1.77 1.14 0.79 1.00 1.59 1.29 1.32 1.64 1.40 2.60 2.00 1.38 1.56 1.44 1.29 0.90 0.91 1.02 0.80 0.57
0.14 0.23 0.07 0.39 0.56 0.37 0.52 0.30 0.22 0.27 0.22 0.26 0.07 0.04 0.06 0.10 0.30 0.12 0.35 0.39 0.12 0.16 0.40 0.42 0.12 0.17 0.33 0.17 0.15 0.14 0.12 0.16 0.65 0.51 0.41 0.22 0.09 0.24 0.19 0.05 0.05 0.08 0.13 0.13 0.12 0.30 0.29 0.09 0.12 0.14 0.21 0.35 0.48 0.48 0.50 0.66 0.76 0.78 0.92 0.74 0.97 1.08 0.91 1.20 1.67 1.56 0.97 1.37 0.94 1.26 1.46 1.82 2.61 1.73 2.80 2.35 1.59 1.41 1.80 1.07 1.13 0.92 0.46 0.52 0.38 0.44
0.14 0.51 0.19 0.31 0.44 0.51 0.26 0.61 0.63 0.74 0.60 0.36 0.22 0.32 0.19 0.28 0.35 0.22 0.23 0.17 0.26 0.42 0.48 0.41 0.25 0.22 0.55 0.30 0.39 0.15 0.11 0.10 0.13 0.20 0.21 0.07 0.07 0.10 0.07 0.14 0.08 0.34 0.43 0.77 0.65 0.36 0.16 0.08 0.18 0.11 0.13 0.41 0.54 0.43 0.49 0.75 0.78 1.33 1.37 0.93 0.98 0.95 0.97 0.93 1.10 1.30 1.59 1.26 1.03 1.37 1.81 1.71 2.33 1.50 1.77 1.87 1.73 1.23 1.64 1.45 1.13 1.00 0.90 0.59 0.86 0.97
0.43 0.35 0.31 0.62 0.37 0.63 0.52 0.60 0.45 0.42 0.40 0.45 0.37 0.36 0.25 0.29 0.14 0.31 0.18 0.15 0.24 0.42 0.42 0.55 0.40 0.29 0.26 0.17 0.11 0.23 0.11 0.12 0.21 0.08 0.11 0.10 0.08 0.08 0.08 0.07 0.09 0.08 0.08 0.13 0.54 0.60 0.39 0.43 0.50 0.41 0.36 0.18 0.65 0.45 0.49 0.51 0.69 0.63 0.79 0.87 1.05 1.00 1.38 1.47 1.24 1.64 0.99 1.06 1.09 1.48 1.20 1.76 1.64 1.31 1.39 1.29 1.64 1.35 1.20 1.21 0.81 1.27 1.77 1.30 0.74 0.90
0.54 0.42 0.41 0.55 0.69 0.82 0.54 0.98 0.43 0.39 0.60 0.41 0.40 0.27 0.23 0.22 0.21 0.09 0.28 0.12 0.17 0.15 0.34 0.28 0.77 0.34 0.24 0.52 0.50 0.17 0.13 0.16 0.29 0.30 0.12 0.17 0.32 0.29 0.21 0.17 0.21 0.45 0.27 0.62 0.57 0.82 0.79 0.84 1.26 0.85 1.09 0.61 0.54 0.29 0.47 0.67 0.59 0.92 0.94 1.02 1.05 0.91 0.93 1.15 0.97 1.05 1.06 0.81 0.96 1.25 1.08 1.14 1.07 1.24 1.69 1.75 1.18 1.28 1.01 1.28 1.15 1.18 1.42 1.40 1.30 0.90
0.17 0.32 0.27 0.39 0.40 0.43 0.78 0.85 0.78 0.93 0.49 0.62 0.29 0.19 0.18 0.22 0.16 0.13 0.20 0.08 0.07 0.08 0.13 0.20 0.29 0.43 0.28 0.40 0.38 0.69 0.51 0.62 0.30 0.67 0.34 0.21 0.21 0.43 0.58 0.48 0.49 0.63 0.68 0.77 0.49 0.41 0.75 1.36 1.05 0.48 1.13 0.51 0.69 0.79 0.46 0.72 0.62 0.65 0.57 0.91 1.26 0.99 0.99 1.01 0.83 0.68 0.81 0.95 0.79 1.17 1.20 1.32 0.99 1.12 1.11 1.08 1.18 1.24 1.67 1.35 1.34 1.15 1.22 1.55 1.28 1.02
0.07 0.11 0.15 0.25 0.39 0.27 0.47 0.85 0.75 0.75 0.40 0.54 0.61 0.53 0.24 0.20 0.17 0.18 0.15 0.12 0.09 0.08 0.06 0.06 0.12 0.12 0.36 0.48 0.36 0.42 0.47 0.40 0.43 0.55 0.67 0.57 0.54 0.92 1.11 1.32 1.19 0.89 0.77 0.81 0.84 0.84 0.98 0.91 0.93 1.07 1.01 0.70 0.40 0.44 0.62 0.58 0.92 0.74 0.78 0.78 0.90 0.99 1.19 1.41 1.08 0.69 0.72 0.62 0.90 0.66 1.00 0.96 0.97 1.01 1.17 1.16 1.13 1.40 1.24 1.19 0.98 0.88 0.69 0.60 0.54 0.50
0.28 0.22 0.07 0.30 0.22 0.25 0.34 0.41 0.48 0.81 0.49 0.33 0.30 0.29 0.58 0.32 0.16 0.36 0.20 0.28 0.28 0.20 0.12 0.09 0.21 0.29 0.30 0.22 0.35 0.52 0.46 0.49 0.69 0.70 0.73 1.01 0.95 0.84 0.75 1.10 0.81 0.58 0.78 0.78 0.38 0.31 0.35 0.81 1.06 1.18 1.20 1.12 0.97 0.55 0.66 0.65 0.94 0.82 1.03 1.09 0.89 0.70 0.73 1.11 1.46 1.41 0.87 0.86 0.63 0.66 1.25 1.53 1.29 1.47 1.46 1.29 1.14 1.29 1.27 1.20 1.16 1.04 0.99 0.98 0.67 0.50
0.76 0.27 0.48 0.14 0.32 0.19 0.51 0.44 0.43 0.53 0.54 0.52 0.32 0.47 0.13 0.38 0.19 0.25 0.11 0.29 0.36 0.34 0.22 0.12 0.12 0.28 0.36 0.50 0.57 0.33 0.42 0.57 0.52 0.45 0.39 0.54 0.58 0.78 0.65 1.11 1.01 0.65 0.60 0.62 0.47 0.69 0.60 0.64 0.57 0.53 0.65 0.98 0.82 0.65 0.53 0.50 0.56 0.71 0.77 0.84 0.96 0.66 0.92 1.04 1.12 1.13 1.16 1.44 1.51 1.89 1.59 1.89 1.51 0.94 1.05 1.31 1.09 1.28 1.17 1.25 1.33 1.24 1.38 1.33 1.02 0.81
0.30 0.36 0.27 0.05 0.33 0.07 0.39 0.39 0.29 0.26 0.36 0.23 0.36 0.20 0.26 0.22 0.36 0.37 0.09 0.28 0.55 0.54 0.29 0.18 0.20 0.20 0.30 0.36 0.40 0.41 0.49 0.56 0.60 0.60 0.55 0.54 0.52 0.51 0.56 0.65 0.58 0.60 0.49 0.64 0.45 0.25 0.18 0.14 0.15 0.14 0.25 0.30 0.36 0.39 0.33 0.31 0.28 0.23 0.27 0.35 0.27 0.34 0.66 0.74 0.86 1.34 1.37 1.17 1.62 2.15 2.46 1.79 1.79 1.28 0.92 1.07 1.06 0.95 1.23 1.21 1.14 1.46 1.33 1.34 1.19 1.01
0.31 0.24 0.38 0.15 0.39 0.17 0.38 0.47 0.70 0.35 0.28 0.18 0.13 0.11 0.06 0.10 0.35 0.48 0.41 0.30 0.40 0.28 0.30 0.35 0.43 0.22 0.17 0.32 0.20 0.29 0.41 0.60 0.54 0.63 0.66 0.70 0.59 0.60 0.59 0.72 0.76 0.66 0.47 0.34 0.31 0.22 0.16 0.11 0.04 0.05 0.07 0.07 0.04 0.07 0.32 0.26 0.16 0.23 0.19 0.20 0.11 0.12 0.21 0.36 0.52 0.54 0.97 1.42 1.78 2.09 2.13 2.30 2.27 1.93 1.68 1.24 1.17 1.09 0.96 1.19 1.32 1.29 1.38 1.48 1.40 1.41
0.34 0.64 0.61 0.67 0.15 0.70 0.27 0.39 0.27 0.19 0.17 0.15 0.10 0.06 0.05 0.06 0.10 0.30 0.36 0.57 0.16 0.31 0.21 0.23 0.27 0.21 0.18 0.36 0.19 0.17 0.27 0.44 0.59 0.87 0.58 0.55 0.47 0.43 0.47 0.48 0.55 0.44 0.38 0.22 0.13 0.10 0.09 0.04 0.07 0.11 0.03 0.01 0.01 0.02 0.05 0.12 0.27 0.18 0.09 0.10 0.09 0.17 0.18 0.17 0.26 0.37 0.51 0.63 1.18 1.64 1.59 1.55 1.63 1.79 2.15 1.95 1.70 1.59 1.38 1.32 1.36 1.25 1.23 1.48 1.34 1.42
0.54 0.53 0.44 0.40 0.26 0.39 0.34 0.27 0.42 0.49 0.49 0.14 0.09 0.03 0.14 0.06 0.15 0.26 0.44 0.11 0.16 0.25 0.24 0.16 0.19 0.18 0.21 0.23 0.34 0.20 0.22 0.21 0.40 0.41 0.46 0.47 0.48 0.46 0.38 0.34 0.33 0.27 0.22 0.09 0.06 0.05 0.06 0.05 0.06 0.05 0.05 0.01 0.00 0.00 0.00 0.01 0.06 0.12 0.11 0.06 0.05 0.06 0.10 0.11 0.09 0.22 0.32 0.19 0.36 0.44 0.85 1.01 1.09 1.20 1.39 1.29 1.23 1.29 1.13 1.11 1.34 1.44 1.27 1.28 1.28 1.39
0.34 0.27 0.40 0.37 0.52 0.24 0.51 0.30 0.35 0.41 0.90 0.03 0.16 0.07 0.28 0.07 0.27 0.20 0.07 0.10 0.08 0.36 0.30 0.23 0.16 0.19 0.15 0.52 0.39 0.36 0.29 0.28 0.29 0.31 0.31 0.33 0.38 0.36 0.30 0.26 0.23 0.25 0.16 0.08 0.04 0.02 0.02 0.03 0.03 0.03 0.03 0.03 0.03 0.02 0.01 0.01 0.02 0.02 0.02 0.05 0.08 0.09 0.11 0.12 0.07 0.10 0.15 0.23 0.35 0.26 0.25 0.38 0.78 1.14 1.21 1.37 1.23 1.17 1.24 1.09 1.12 1.17 1.24 1.29 1.31 1.20
0.30 0.32 0.29 0.34 0.33 0.36 0.27 0.28 0.49 0.56 0.39 0.17 0.09 0.26 0.43 0.13 0.09 0.09 0.08 0.10 0.11 0.22 0.35 0.42 0.34 0.22 0.14 0.23 0.34 0.44 0.38 0.31 0.30 0.23 0.15 0.13 0.13 0.17 0.19 0.19 0.17 0.14 0.13 0.07 0.04 0.03 0.02 0.02 0.01 0.02 0.01 0.01 0.02 0.03 0.02 0.03 0.03 0.04 0.04 0.03 0.02 0.05 0.08 0.12 0.20 0.25 0.19 0.14 0.24 0.29 0.32 0.41 0.52 0.60 0.72 0.96 1.44 1.71 1.43 1.13 1.01 1.04 0.98 0.93 1.08 1.19
0.18 0.13 0.16 0.49 0.34 0.33 0.41 0.42 0.30 0.29 0.21 0.13 0.15 0.13 0.20 0.16 0.12 0.13 0.13 0.12 0.11 0.15 0.19 0.27 0.40 0.38 0.21 0.21 0.21 0.37 0.42 0.32 0.25 0.16 0.11 0.09 0.05 0.05 0.08 0.11 0.17 0.12 0.09 0.06 0.04 0.02 0.02 0.02 0.01 0.01 0.02 0.01 0.02 0.02 0.02 0.03 0.03 0.07 0.08 0.08 0.04 0.03 0.03 0.08 0.11 0.15 0.24 0.25 0.37 0.43 0.22 0.14 0.19 0.24 0.35 0.26 0.26 0.50 0.96 1.17 1.23 1.05 0.99 0.86 0.88 0.91
0.17 0.06 0.08 0.10 0.34 0.20 0.21 0.32 0.44 0.22 0.18 0.17 0.11 0.13 0.15 0.16 0.12 0.13 0.12 0.22 0.18 0.21 0.17 0.27 0.31 0.24 0.16 0.12 0.14 0.21 0.33 0.34 0.15 0.08 0.07 0.08 0.09 0.08 0.07 0.06 0.07 0.09 0.09 0.09 0.08 0.06 0.05 0.04 0.02 0.02 0.02 0.01 0.01 0.01 0.01 0.02 0.01 0.02 0.04 0.07 0.07 0.08 0.07 0.08 0.09 0.12 0.16 0.17 0.17 0.21 0.22 0.14 0.11 0.17 0.20 0.18 0.41 0.24 0.26 0.44 0.70 1.04 1.30 1.03 0.97 1.00
0.15 0.07 0.10 0.12 0.15 0.23 0.41 0.39 0.10 0.18 0.14 0.11 0.09 0.12 0.06 0.03 0.04 0.04 0.07 0.11 0.12 0.11 0.13 0.13 0.20 0.20 0.18 0.16 0.15 0.17 0.21 0.21 0.17 0.13 0.14 0.13 0.11 0.10 0.11 0.11 0.09 0.08 0.07 0.08 0.09 0.08 0.08 0.07 0.05 0.04 0.03 0.02 0.01 0.02 0.02 0.02 0.01 0.01 0.01 0.01 0.02 0.03 0.07 0.09 0.11 0.12 0.15 0.14 0.21 0.17 0.19 0.19 0.15 0.15 0.17 0.29 0.19 0.21 0.19 0.25 0.39 0.42 0.56 1.04 0.98 1.34
0.12 0.04 0.07 0.07 0.18 0.14 0.31 0.28 0.06 0.05 0.12 0.08 0.03 0.06 0.04 0.03 0.03 0.01 0.01 0.02 0.05 0.10 0.14 0.16 0.14 0.15 0.13 0.14 0.15 0.19 0.21 0.19 0.18 0.16 0.15 0.16 0.16 0.18 0.19 0.16 0.14 0.14 0.13 0.12 0.10 0.08 0.07 0.07 0.07 0.06 0.05 0.04 0.02 0.01 0.01 0.01 0.02 0.02 0.02 0.02 0.02 0.03 0.03 0.04 0.05 0.11 0.09 0.06 0.07 0.09 0.19 0.16 0.15 0.25 0.16 0.12 0.14 0.20 0.18 0.33 0.24 0.30 0.26 0.33 0.44 0.58
0.23 0.02 0.04 0.06 0.08 0.15 0.10 0.09 0.06 0.09 0.03 0.11 0.21 0.04 0.05 0.01 0.00 0.01 0.02 0.03 0.02 0.04 0.05 0.08 0.11 0.16 0.18 0.19 0.15 0.16 0.21 0.22 0.20 0.20 0.18 0.13 0.13 0.17 0.16 0.13 0.15 0.14 0.13 0.15 0.14 0.12 0.10 0.08 0.06 0.05 0.05 0.04 0.02 0.02 0.02 0.02 0.00 0.02 0.01 0.01 0.02 0.03 0.04 0.05 0.04 0.07 0.10 0.07 0.05 0.05 0.06 0.07 0.09 0.15 0.11 0.14 0.14 0.13 0.17 0.25 0.16 0.19 0.22 0.34 0.36 0.46
0.05 0.08 0.03 0.02 0.10 0.16 0.32 0.33 0.08 0.17 0.13 0.14 0.08 0.13 0.13 0.03 0.04 0.07 0.04 0.02 0.03 0.04 0.06 0.08 0.10 0.10 0.11 0.13 0.17 0.19 0.24 0.22 0.19 0.18 0.18 0.12 0.11 0.09 0.08 0.07 0.09 0.13 0.08 0.07 0.08 0.08 0.08 0.08 0.06 0.06 0.07 0.05 0.08 0.02 0.03 0.01 0.00 0.02 0.01 0.01 0.00 0.01 0.01 0.01 0.05 0.09 0.07 0.06 0.06 0.06 0.06 0.07 0.06 0.10 0.23 0.10 0.08 0.10 0.07 0.05 0.08 0.11 0.10 0.30 0.18 0.19
0.11 0.17 0.09 0.09 0.11 0.21 0.14 0.03 0.12 0.10 0.12 0.22 0.14 0.05 0.02 0.03 0.04 0.03 0.03 0.04 0.05 0.05 0.11 0.07 0.08 0.05 0.05 0.08 0.06 0.05 0.05 0.06 0.10 0.12 0.13 0.11 0.06 0.10 0.08 0.11 0.13 0.13 0.12 0.06 0.08 0.10 0.11 0.09 0.07 0.06 0.05 0.03 0.02 0.02 0.02 0.02 0.00 0.01 0.01 0.01 0.01 0.01 0.01 0.01 0.02 0.03 0.06 0.04 0.06 0.07 0.09 0.08 0.11 0.23 0.29 0.32 0.23 0.15 0.14 0.19 0.08 0.06 0.07 0.08 0.11 0.11